Station HLNM4 - 9087031 - Holland, MI Image indicating link to RSS feed of recent meteorological observations for station HLNM4


Conditions at HLNM4 as of
(2:18 am EDT)
0618 GMT on 04/15/2024:
     

Click on the graph icon in the table below to see a time series plot of the last five days of that observation.

5-day plot - Wind Direction Wind Direction (WDIR): NE ( 50 deg true )
5-day plot - Wind Speed Wind Speed (WSPD): 12.0 kts
5-day plot - Wind Gust Wind Gust (GST): 15.9 kts
5-day plot - Atmospheric Pressure Atmospheric Pressure (PRES):29.80 in
5-day plot - Air Temperature Air Temperature (ATMP): 55.8 °F
5-day plot - Water Temperature Water Temperature (WTMP): 50.7 °F
5-day plot - Wind Speed at 10 Meters Wind Speed at 10 meters (WSPD10M): 11.7 kts
5-day plot - Wind Speed at 20 Meters Wind Speed at 20 meters (WSPD20M): 13.6 kts
5-day plot -  Wind Speed, Wind Gust and Atmospheric Pressure Combined plot of Wind Speed, Gust, and Air Pressure
NOS Water Level Observation Network Water Level
Previous observations
TIME
(EDT)
5-day plot - Wind Direction
WDIR
 
5-day plot - Wind Speed
WSPD
kts
5-day plot - Wind Gust
GST
kts
5-day plot - Wave Height
WVHT
ft
5-day plot - Dominant Wave Period
DPD
sec
5-day plot - Average Wave Period
APD
sec
5-day plot - Mean Wave Direction
MWD
 
5-day plot - Atmospheric Pressure
PRES
in
5-day plot - Pressure Tendency
PTDY
in
5-day plot - Air Temperature
ATMP
°F
5-day plot - Water Temperature
WTMP
°F
5-day plot - Dew Point
DEWP
°F
5-day plot - Salinity
SAL
psu
5-day plot - Visibility
VIS
nmi
5-day plot - Tide (above MLLW)
TIDE
ft
2024-04-15 02:12 am NE 12.0 17.1----29.80- 55.6 50.7----
2024-04-15 02:06 am NE 13.0 18.1----29.80- 55.4 50.7----
2024-04-15 02:00 am NE 12.0 15.9----29.79+0.04 54.9 50.7----
2024-04-15 01:54 am NE 11.1 15.9----29.79- 54.5 50.7----
2024-04-15 01:48 am NE 7.0 11.1----29.79- 54.1 50.7----
2024-04-15 01:42 am N 8.0 9.9----29.79- 50.0 50.7 45.7---
2024-04-15 01:36 amNNW 8.9 8.9----29.79- 49.8 50.7 47.3---
2024-04-15 01:30 amNNW 8.0 8.9----29.79- 49.8 50.7 48.7---
2024-04-15 01:24 amNNW 5.1 6.0----29.79- 50.0 50.7 48.7---
2024-04-15 01:18 am- 0.0 1.9----29.78- 50.2 50.7 41.2---
2024-04-15 01:12 amENE 1.0 4.1----29.78- 50.4 50.7 43.7---
2024-04-15 01:06 am N 4.1 6.0----29.78- 50.2 50.7 46.9---
2024-04-15 01:00 am N 5.1 5.1----29.78+0.04 50.5 50.7 46.2---
2024-04-15 12:54 am N 5.1 6.0----29.78- 50.9 50.7 45.5---
2024-04-15 12:48 am N 5.1 6.0----29.78- 50.0 50.7 46.4---
2024-04-15 12:42 am N 6.0 7.0----29.78- 49.8 50.7 46.0---
2024-04-15 12:36 amNNW 7.0 7.0----29.77- 49.8 50.7 45.7---
2024-04-15 12:30 amNNW 6.0 8.0----29.77- 50.2 50.7 45.5---
2024-04-15 12:24 amNNW 8.0 8.9----29.77- 50.5 50.7 45.5---
2024-04-15 12:18 amNNW 5.1 7.0----29.77- 51.3 50.9 43.9---
2024-04-15 12:12 amNNW 4.1 5.1----29.77- 51.1 50.9 43.0---
2024-04-15 12:06 amNNE 1.0 2.9----29.77- 50.5 50.9 43.3---
2024-04-15 12:00 am NE 1.9 5.1----29.76+0.04 51.1 51.1 44.6---
2024-04-14 11:54 pmENE 2.9 4.1----29.76- 51.8 51.1 42.8---
2024-04-14 11:48 pmENE 2.9 2.9----29.76- 51.6 51.1 41.2---
2024-04-14 11:42 pmENE 1.9 2.9----29.75- 51.3 51.1 42.4---
2024-04-14 11:36 pmENE 1.0 1.9----29.75- 51.1 51.1 43.5---
2024-04-14 11:30 pmENE 1.9 2.9----29.75- 51.1 51.1 43.9---
2024-04-14 11:24 pm N 2.9 4.1----29.75- 51.4 51.1 43.9---
2024-04-14 11:18 pm N 4.1 5.1----29.75- 50.9 51.1 45.9---
2024-04-14 11:12 pm N 4.1 5.1----29.75- 51.1 51.1 46.0---
2024-04-14 11:06 pm N 4.1 5.1----29.75- 51.3 51.1 45.7---
2024-04-14 11:00 pm N 5.1 5.1----29.75+0.02 51.1 50.9 46.6---
2024-04-14 10:54 pm N 4.1 6.0----29.75- 51.1 50.9 47.3---
2024-04-14 10:48 pm N 4.1 4.1----29.75- 50.9 51.1 46.8---
2024-04-14 10:42 pm N 5.1 5.1----29.75- 51.3 51.1 45.9---
2024-04-14 10:36 pm N 1.9 2.9----29.75- 51.4 51.1 45.5---
2024-04-14 10:30 pm NE 1.9 1.9----29.75- 51.6 51.1 46.4---
2024-04-14 10:24 pmNNE 1.0 1.9----29.75- 51.4 51.1 45.3---
2024-04-14 10:18 pm N 1.0 1.0----29.75- 52.0 51.1 45.7---
2024-04-14 10:12 pm- 0.0 1.0----29.74- 51.4 50.9 46.9---
2024-04-14 10:06 pmENE 1.0 1.9----29.74- 51.6 50.7 46.6---
2024-04-14 10:00 pm- 0.0 1.0----29.74+0.02 50.7 50.7 45.5---
2024-04-14 09:54 pm- 0.0 1.0----29.74- 50.5 50.9 45.0---
2024-04-14 09:48 pm- 0.0 1.0----29.74- 50.4 51.1 45.0---
2024-04-14 09:42 pm S 1.0 1.9----29.74- 50.5 51.3 45.1---
2024-04-14 09:36 pmSSE 1.9 4.1----29.74- 50.5 51.4 44.6---
2024-04-14 09:30 pm S 4.1 5.1----29.74- 50.5 51.4 44.2---
2024-04-14 09:24 pm S 5.1 5.1----29.73- 50.5 51.6 44.1---
2024-04-14 09:18 pm S 5.1 5.1----29.73- 50.5 51.6 44.6---
2024-04-14 09:12 pm S 4.1 5.1----29.73- 50.7 51.8 45.1---
2024-04-14 09:06 pm S 5.1 7.0----29.73- 50.5 52.2 45.3---
2024-04-14 09:00 pm S 7.0 7.0----29.73+0.00 50.7 52.2 44.8---
2024-04-14 08:54 pm S 5.1 6.0----29.73- 50.7 52.2 44.6---
2024-04-14 08:48 pm S 7.0 8.9----29.72-- 52.0----
2024-04-14 08:42 pm S 8.9 8.9----29.72-- 52.0----
2024-04-14 08:36 pm S 7.0 8.0----29.72-- 51.6----
2024-04-14 08:30 pm-------29.72- 50.5 51.4 45.7---
2024-04-14 08:24 pm-------29.72- 49.8 51.1 45.5---
2024-04-14 08:18 pm S 8.9 9.9------ 49.5 51.3 45.3---
2024-04-14 08:12 pm S 8.9 8.9------ 50.2 51.3 45.1---
2024-04-14 08:06 pm S 8.0 8.9------ 50.4 51.3 45.1---
2024-04-14 08:00 pm S 8.0 8.9----29.72+0.00 49.8 51.1 45.3---
2024-04-14 07:54 pm S 8.9 8.9----29.72- 49.6 51.1 45.0---
2024-04-14 07:48 pm S 8.0 8.9----29.73- 49.8 50.9 45.0---
2024-04-14 07:42 pm S 8.0 8.9----29.72- 49.8 51.1 45.3---
2024-04-14 07:36 pm S 8.0 9.9----29.72- 49.3 51.1 45.1---
2024-04-14 07:30 pm S 8.9 9.9----29.72- 49.3 51.1 45.1---
2024-04-14 07:24 pm S 8.0 8.9----29.72- 49.6 51.1 45.3---
2024-04-14 07:18 pm S 8.0 8.0----29.72- 49.6 51.3 45.3---
2024-04-14 07:12 pm S 8.0 8.9----29.72- 49.1 51.4 45.9---
2024-04-14 07:06 pm S 8.0 8.9----29.73- 49.1 51.4 46.0---
2024-04-14 07:00 pm S 8.9 9.9----29.72+0.01- 51.4----
2024-04-14 06:54 pm S 6.0 7.0----29.73-- 51.4----
2024-04-14 06:48 pm S 7.0 8.0----29.73- 48.9 51.3 45.3---
2024-04-14 06:42 pm S 7.0 8.0----29.73- 49.1 51.1 45.0---
2024-04-14 06:36 pm S 8.0 8.0----29.73- 49.5 50.9 44.4---
2024-04-14 06:30 pm S 8.0 8.0----29.73- 49.8 50.7 43.3---
2024-04-14 06:24 pm S 8.0 8.0----29.73- 49.8 50.7 43.3---
2024-04-14 06:18 pm S 7.0 7.0----29.72- 49.8 50.7 43.3---
2024-04-14 06:12 pm S 5.1 6.0----29.72- 50.2 50.7 43.7---
2024-04-14 06:06 pm S 5.1 5.1----29.72- 50.4 50.7 42.8---
2024-04-14 06:00 pm S 4.1 5.1----29.72+0.01 50.5 50.7 43.2---
2024-04-14 05:54 pmSSW 4.1 5.1----29.72- 50.5 50.7 43.2---
2024-04-14 05:48 pm S 4.1 4.1----29.72-- 50.7----
2024-04-14 05:42 pmSSW 2.9 2.9----29.72-- 50.7----
2024-04-14 05:36 pm SW 2.9 2.9----29.72-- 50.5----
2024-04-14 05:30 pmSSW 4.1 4.1----29.72-- 50.4----
2024-04-14 05:24 pmSSW 2.9 4.1----29.72-- 50.5----
2024-04-14 05:18 pm SW 1.9 2.9----29.72- 50.5 50.7 40.6---
2024-04-14 05:12 pm SW 2.9 4.1----29.72- 50.0 51.1 41.2---
2024-04-14 05:06 pm SW 4.1 4.1----29.72- 49.3 51.3 41.5---
2024-04-14 05:00 pmWSW 4.1 4.1----29.72+0.01 49.3 51.4 41.9---
2024-04-14 04:54 pmWSW 2.9 5.1----29.72- 49.3 51.4 40.8---
2024-04-14 04:48 pmWSW 4.1 5.1----29.72- 48.9 51.4 41.4---
2024-04-14 04:42 pm SW 4.1 6.0----29.72- 48.7 51.3 43.2---
2024-04-14 04:36 pmWSW 4.1 5.1----29.72- 48.9 51.3 42.3---
2024-04-14 04:30 pm W 5.1 5.1----29.72- 48.9 51.4 42.8---
2024-04-14 04:24 pm W 5.1 6.0----29.72- 48.9 51.6 42.6---
2024-04-14 04:18 pm W 5.1 5.1----29.72- 48.7 51.4 43.2---
2024-04-14 04:12 pm SW 5.1 5.1----29.71- 48.9 50.7 42.8---
2024-04-14 04:06 pm SW 4.1 5.1----29.71- 49.1 50.2 42.8---
2024-04-14 04:00 pmSSW 5.1 5.1----29.71+0.02 48.9 50.2 44.8---
2024-04-14 03:54 pm SW 5.1 5.1----29.71- 48.7 50.0 43.0---
2024-04-14 03:48 pm SW 4.1 5.1----29.71- 48.6 50.0 42.1---
2024-04-14 03:42 pm SW 4.1 5.1----29.71- 48.7 50.0 43.2---
2024-04-14 03:36 pmWSW 5.1 5.1----29.71- 48.4 50.0 42.3---
2024-04-14 03:30 pm W 5.1 6.0----29.71- 48.6 50.0 42.3---
2024-04-14 03:24 pmWSW 5.1 6.0----29.71- 48.6 50.2 42.1---
2024-04-14 03:18 pmWSW 6.0 6.0----29.71- 48.6 50.2 42.8---
2024-04-14 03:12 pmWSW 5.1 6.0----29.71- 48.2 50.0 42.4---
2024-04-14 03:06 pmWSW 4.1 6.0----29.71- 48.4 50.0 42.8---
2024-04-14 03:00 pm SW 5.1 8.9----29.71+0.04------
2024-04-14 02:54 pm S 6.0 8.0----29.71-------
2024-04-14 02:48 pmSSW 5.1 6.0----29.71- 48.2 49.8 43.5---
2024-04-14 02:42 pmSSW 6.0 7.0----29.71- 48.2 49.8 43.3---
2024-04-14 02:36 pmSSW 6.0 7.0----29.71- 48.4 49.8 42.8---
2024-04-14 02:30 pmSSW 6.0 7.0----29.71- 48.7 49.8 43.3---
2024-04-14 02:24 pmSSW 6.0 7.0----29.71- 48.7 49.8 43.5---
2024-04-14 02:18 pmSSW 6.0 7.0----29.71- 48.7 50.0 43.2---
2024-04-14 02:12 pmSSW 7.0 7.0----29.71- 48.9 49.8 43.3---
2024-04-14 02:06 pmSSW 7.0 8.0----29.70- 48.9 49.8 42.8---
2024-04-14 02:00 pm S 7.0 8.9----29.70+0.05 49.1 49.6 43.7---
2024-04-14 01:54 pm S 8.0 8.9----29.70- 49.3 49.6 43.3---
2024-04-14 01:48 pmSSW 7.0 8.0----29.70- 49.8 49.6 43.2---
2024-04-14 01:42 pmSSW 7.0 8.0----29.70- 49.8 49.6 42.8---
2024-04-14 01:36 pm S 8.0 8.9----29.70- 49.6 49.6 43.2---
2024-04-14 01:30 pm S 8.0 9.9----29.70- 49.3 49.6 43.9---
2024-04-14 01:24 pm S 8.9 9.9----29.70- 49.5 49.6 43.7---
2024-04-14 01:18 pm S 9.9 11.1----29.70- 49.5 49.6 43.2---
2024-04-14 01:12 pm S 11.1 12.0----29.69- 49.5 49.6 43.3---
2024-04-14 01:06 pm S 12.0 12.0----29.69- 49.6 49.6 43.5---
2024-04-14 01:00 pm S 12.0 12.0----29.69+0.05 49.8 49.5 44.1---
2024-04-14 12:54 pm S 11.1 12.0----29.69- 49.6 49.5 44.1---
2024-04-14 12:48 pm S 11.1 12.0----29.69-- 49.3----
2024-04-14 12:42 pm S 12.0 13.0----29.69-- 49.3----
2024-04-14 12:36 pm S 12.0 12.0----29.69-- 49.3----
2024-04-14 12:30 pm S 11.1 12.0----29.69-- 49.3----
2024-04-14 12:24 pm S 11.1 12.0----29.68-- 49.3----
2024-04-14 12:18 pm S 11.1 12.0----29.68- 50.4 49.3 44.1---
2024-04-14 12:12 pm S 11.1 12.0----29.68- 50.4 49.3 44.1---
2024-04-14 12:06 pm S 12.0 13.0----29.67- 50.4 49.3 44.2---
2024-04-14 12:00 pm S 12.0 13.0----29.67+0.04 50.4 49.1 44.1---
2024-04-14 11:54 am S 13.0 14.0----29.67- 50.2 49.1 44.1---
2024-04-14 11:48 am S 12.0 15.9----29.67- 50.4 48.9 43.9---
2024-04-14 11:42 am S 13.0 15.0----29.67- 50.5 48.7 43.9---
2024-04-14 11:36 am S 13.0 17.1----29.67- 50.2 48.7 44.2---
2024-04-14 11:30 am S 14.0 15.9----29.67-- 48.7----
2024-04-14 11:24 am S 15.9 18.1----29.66-- 48.7----
2024-04-14 11:18 am S 15.0 17.1----29.66-- 48.9----
2024-04-14 11:12 am S 15.0 18.1----29.66-- 49.3----
2024-04-14 11:06 am S 15.9 17.1----29.66-- 49.1----
2024-04-14 11:00 am S 15.0 17.1----29.65+0.04 49.8 48.7 44.8---
2024-04-14 10:54 am S 15.0 17.1----29.65- 49.8 48.4 44.6---
2024-04-14 10:48 am S 15.0 17.1----29.65- 49.8 48.4 44.8---
2024-04-14 10:42 am S 15.9 17.1----29.65- 49.8 48.4 44.6---
2024-04-14 10:36 am S 15.9 17.1----29.65- 50.0 48.4 44.2---
2024-04-14 10:30 am S 15.0 17.1----29.64- 50.2 48.4 44.6---
2024-04-14 10:24 am S 15.0 17.1----29.64- 50.0 48.4 44.8---
2024-04-14 10:18 am S 15.0 15.9----29.64- 49.6 48.4 45.0---
2024-04-14 10:12 am S 15.0 15.9----29.64- 49.6 48.4 45.3---
2024-04-14 10:06 am S 15.0 15.9----29.64- 49.6 48.4 45.1---
2024-04-14 10:00 am S 15.0 17.1----29.64+0.05- 48.4----
2024-04-14 09:54 am S 15.0 17.1----29.64-- 48.2----
2024-04-14 09:48 am S 13.0 15.0----29.64- 49.6 48.2 45.0---
2024-04-14 09:42 am S 14.0 15.0----29.64- 49.6 48.4 45.0---
2024-04-14 09:36 am S 13.0 15.0----29.64- 49.8 48.6 45.1---
2024-04-14 09:30 am S 14.0 15.0----29.64-- 48.6----
2024-04-14 09:24 am S 15.0 15.9----29.63-- 48.7----
2024-04-14 09:18 am S 14.0 15.9----29.63- 50.2 48.7 45.0---
2024-04-14 09:12 am S 14.0 15.0----29.63- 49.8 48.7 45.1---
2024-04-14 09:06 am S 14.0 15.0----29.63- 50.0 48.7 45.0---
2024-04-14 09:00 am S 15.0 17.1----29.63- 50.0 48.7 45.3---
2024-04-14 08:54 am S 15.0 17.1----29.63- 50.2 48.9 45.3---
2024-04-14 08:48 am-------29.63- 50.2 48.9 45.3---
2024-04-14 08:42 am-------29.63- 50.2 48.9 45.3---
2024-04-14 08:36 am-------29.63- 50.2 48.7 45.0---
2024-04-14 08:30 am S 14.0 15.0----29.63-- 48.7----
2024-04-14 08:24 am S 13.0 17.1----29.63-- 48.7----
2024-04-14 08:18 am S 15.0 18.1----29.62- 50.4 48.6 44.6---
2024-04-14 08:12 am S 15.9 19.0----29.62- 50.7 48.6 44.6---
2024-04-14 08:06 am S 15.0 19.0----29.62- 50.9 48.6 44.8---
2024-04-14 08:00 am S 19.0 24.1----29.62+0.02- 48.6----
2024-04-14 07:54 am S 19.0 20.0----29.62-- 48.4----
2024-04-14 07:48 am S 17.1 21.0----29.62-- 48.6----
2024-04-14 07:42 am S 18.1 22.9----29.62-- 48.6----
2024-04-14 07:36 am S 19.0 22.0----29.61-- 48.6----
2024-04-14 07:30 am S 19.0 21.0----29.61- 50.9 48.6 45.5---
2024-04-14 07:24 am S 19.0 21.0----29.60- 51.1 48.6 45.3---
2024-04-14 07:18 am S 19.0 22.9----29.60-------
2024-04-14 07:12 am S 19.0 22.0----29.60-------
2024-04-14 07:06 am S 18.1 22.0----29.59-------
2024-04-14 07:00 am S 19.0 22.9----29.59-0.04 51.3 48.7 45.5---
2024-04-14 06:54 am S 19.0 24.1----29.58- 51.3 48.7 45.5---
2024-04-14 06:48 am S 21.0 22.9----29.58-- 48.7----
2024-04-14 06:42 am S 21.0 22.9----29.57-- 48.7----
2024-04-14 06:36 am S 20.0 22.0----29.58-- 48.7----
2024-04-14 06:30 am S 20.0 22.9----29.57- 50.9 48.7 45.0---
2024-04-14 06:24 am S 20.0 24.1----29.57- 50.9 48.7 45.1---
2024-04-14 06:18 am S 20.0 24.1----29.57- 50.9 48.7 45.0---
2024-04-14 06:12 am S 20.0 22.9----29.58- 50.9 48.7 44.8---
2024-04-14 06:06 am S 20.0 22.9----29.58- 51.1 48.7 44.8---
2024-04-14 06:00 am S 20.0 22.9------ 51.1- 45.0---
2024-04-14 05:54 am S 20.0 22.0------ 51.1- 44.4---
2024-04-14 05:48 am S 21.0 22.9------ 51.1 48.9 44.6---
2024-04-14 05:42 am S 20.0 22.9------ 51.1 48.9 44.4---
2024-04-14 05:36 am S 20.0 22.9------ 51.1 48.9 44.2---
2024-04-14 05:30 am S 21.0 24.1----29.59-- 48.9----
2024-04-14 05:24 am S 21.0 25.1----29.59-- 48.9----
2024-04-14 05:18 am S 22.9 25.1----29.59- 51.6 48.9 43.9---
2024-04-14 05:12 am S 22.9 25.1----29.59- 51.6 48.9 43.9---
2024-04-14 05:06 am S 24.1 26.0----29.59- 51.6 48.9 43.7---
2024-04-14 05:00 am S 22.0 26.0----29.60-0.09 51.4 48.9 43.9---
2024-04-14 04:54 am S 22.0 24.1----29.60- 51.3 48.9 43.5---
2024-04-14 04:48 am S 22.0 24.1----29.61- 51.1 48.9 43.3---
2024-04-14 04:42 am S 21.0 25.1----29.61- 50.9 48.9 43.2---
2024-04-14 04:36 am S 20.0 22.0----29.61- 50.9 48.9 43.2---
2024-04-14 04:30 am S 21.0 22.9----29.62- 50.9 48.9 42.6---
2024-04-14 04:24 am S 21.0 24.1----29.62- 51.1 48.9 42.3---
2024-04-14 04:18 am S 21.0 25.1----29.62- 51.3 48.9 42.6---
2024-04-14 04:12 am S 22.0 24.1----29.62- 51.6 48.9 42.3---
2024-04-14 04:06 am S 20.0 22.9----29.62- 51.8 48.9 42.3---
2024-04-14 04:00 am S 21.0 22.9----29.62-0.12 52.0 48.9 41.5---
2024-04-14 03:54 am S 21.0 24.1----29.63- 52.3 48.9 41.0---
2024-04-14 03:48 am S 20.0 22.9----29.63- 52.2 48.9 39.9---
2024-04-14 03:42 am S 21.0 22.9----29.63- 52.2 48.9 41.0---
2024-04-14 03:36 am S 21.0 24.1----29.63- 52.3 48.9 41.4---
2024-04-14 03:30 am S 21.0 24.1----29.64- 52.3 48.9 41.2---
2024-04-14 03:24 am S 21.0 22.9----29.64- 52.2 48.9 41.0---
2024-04-14 03:18 am S 21.0 22.9----29.64- 53.1 48.9 40.3---
2024-04-14 03:12 am S 20.0 22.0----29.65- 53.2 48.9 40.3---
2024-04-14 03:06 am S 21.0 22.9----29.65- 53.2 48.9 40.3---
2024-04-14 03:00 am S 20.0 22.9----29.65-0.12 53.6 48.9 40.1---
2024-04-14 02:54 am S 22.0 25.1----29.66- 54.7 48.9 39.2---